THORAD AGENA D DEB, 4720

Orbit data source: Space-Track

THORAD AGENA D DEB, 4720 is space debris in SSO originally from a launch on Wed, 08 Apr 1970 UTC launched from the Air Force Western Test Range (AFWTR). Debris objects in space refer to the collection of defunct objects orbiting the Earth. Examples of debris include non-operational satellites, rocket bodies, and fragments generated from explosions, collisions, or faulty payload assembly.

Loading next visibility...
Identifier
4720, 1970-025CE
Orbit
SSO
Country
Flag of USUS
Related business
Manufacturer
Unknown
Mission
Spacecraft
Bus & Motor
Unknown
Mass
Unknown
Launch date (UTC)
1970-04-08 (56 years ago)
Launch vehicle
Unknown
Launch site
Air Force Western Test Range (AFWTR)
Object type
Payload
Rocket body
Debris
Shape & HBR
Unknown shape, 0.1 m
Radar Cross Section
Small (<0.1 m²)

Expand to show TLE details & history
Last TLE update: 15 hours ago

TLE from 15 hours ago
0 THORAD AGENA D DEB
1 04720U 70025CE  25351.81830049  .00001297  00000-0  81766-3 0  9996
2 04720 100.0303 288.1655 0084938  74.0418 287.0084 14.04577833824974
Epoch: 2025-12-17T19:38Z
TLE epoch observation values (Epoch: 2025-12-17T19:38:21.162Z)
Latitude
0.00005°
Longitude
-93.10539°
Altitude
863.284 km
Speed
7.43 km/s
True Right ascension
19h 12m 39s
True Declination
0° 00' 00"
Sunlit
Object was in daylight at epoch
Visualization orbit readout
Latitude
Unknown
Longitude
Unknown
Altitude
Unknown
Speed
Unknown
Apparent Right ascension
Unknown
Apparent Declination
Unknown
Sunlit
N/A
Visualization observer readout
Local Sidereal Time
09:40:10
Azimuth
Unknown
Elevation
Unknown
Doppler factor
Unknown
Orbital elements
Apogee altitude
936.841 km
Perigee altitude
813.624 km
Semi-major axis
7,253.369 km
Eccentricity
0.00849
Inclination
100.0303°
RAAN
288.1655°
Arg. of periapsis
74.0418°
True anomaly
286.0748°
Mean anomaly
287.0084°
Eccentric anomaly
286.54188°
Mean motion
3.51345 °/min
Orbital period
102.46 mins
BSTAR
0.00081766
Loading maneuver chart data...
Computing Atmospheric mass density...

Documentation

Showing up to 5 results
|